CZ-6A DEB, 54561

Orbit data source: Space-Track

CZ-6A DEB, 54561 is space debris in SSO originally from a launch on Fri, 11 Nov 2022 UTC launched from the Taiyaun Space Center, China (TSC). Debris objects in space refer to the collection of defunct objects orbiting the Earth. Examples of debris include non-operational satellites, rocket bodies, and fragments generated from explosions, collisions, or faulty payload assembly.

Loading next visibility...
Identifier
54561, 2022-151LM
Orbit
SSO
Country
Flag of CNCN / PRC
Related business
Manufacturer
SAST
Mission
Spacecraft
Bus & Motor
Unknown
Mass
Unknown
Launch date (UTC)
2022-11-11 (3 years ago)
Launch vehicle
Unknown
Launch site
Taiyaun Space Center, China (TSC)
Object type
Payload
Rocket body
Debris
Shape & HBR
Unknown shape, 0.1 m
Radar Cross Section
Small (<0.1 m²)

Expand to show TLE details & history
Last TLE update: 9 hours ago

TLE from 9 hours ago
0 CZ-6A DEB
1 54561U 22151LM  26130.36954802  .00000945  00000-0  33753-3 0  9993
2 54561  98.7788 173.4932 0132502 224.6147 134.4312 14.31782992181787
Epoch: 2026-05-10T08:52Z
TLE epoch observation values (Epoch: 2026-05-10T08:52:08.948Z)
Latitude
-0.00004°
Longitude
172.28231°
Altitude
855.803 km
Speed
7.39 km/s
True Right ascension
11h 33m 58s
True Declination
0° 00' 00"
Sunlit
Object was in full shadow at epoch
Visualization orbit readout
Latitude
Unknown
Longitude
Unknown
Altitude
Unknown
Speed
Unknown
Apparent Right ascension
Unknown
Apparent Declination
Unknown
Sunlit
N/A
Visualization observer readout
Local Sidereal Time
01:59:12
Azimuth
Unknown
Elevation
Unknown
Doppler factor
Unknown
Orbital elements
Apogee altitude
877.808 km
Perigee altitude
688.037 km
Semi-major axis
7,161.06 km
Eccentricity
0.01325
Inclination
98.7788°
RAAN
173.4932°
Arg. of periapsis
224.6147°
True anomaly
135.50295°
Mean anomaly
134.4312°
Eccentric anomaly
134.96832°
Mean motion
3.5816 °/min
Orbital period
100.51 mins
BSTAR
0.00033753
Loading maneuver chart data...
Computing Atmospheric mass density...

Documentation

Showing up to 5 results
|